When you browse on this site, cookies collect data to enhance your experience and personalize the content and advertising you see.
Visit our Privacy Policy to learn more. By continuing to use the site, you agree to this use of cookies and data.
  • In Deutschland
  • Länderverzeichnis
  • Für 7 Tage
  • Wassertemperatur
  • Satellitenkarten
  • Wetterkarte
  • Widgets
  • user-avatar
    Anmelden

    Stündliche Wetter Deyang

    Heute, 20 Januar, Sonntag

    Zeit Temperatur Niederschläge Wind Luftdruck Luftfeuchtigkeit
    00:00 +8°C° 0 mm 1 m/S 724 mmHg 54%
    01:00 +8°C° 0 mm 1 m/S 724 mmHg 50%
    02:00 +7°C° 0 mm 1 m/S 724 mmHg 50%
    03:00 +7°C° 0 mm 1 m/S 724 mmHg 50%
    04:00 +7°C° 0 mm 1 m/S 724 mmHg 49%
    05:00 +6°C° 0 mm 1 m/S 724 mmHg 49%
    06:00 +6°C° 0 mm 1 m/S 725 mmHg 49%
    07:00 +5°C° 0 mm 0 m/S 725 mmHg 56%
    08:00 +7°C° 0 mm 1 m/S 725 mmHg 51%
    09:00 +9°C° 0 mm 1 m/S 725 mmHg 47%
    10:00 +10°C° 0 mm 2 m/S 726 mmHg 43%
    11:00 +12°C° 0 mm 2 m/S 725 mmHg 39%
    12:00 +12°C° 0 mm 3 m/S 725 mmHg 34%
    13:00 +13°C° 0 mm 3 m/S 725 mmHg 32%
    14:00 +12°C° 0 mm 3 m/S 725 mmHg 33%
    15:00 +12°C° 0 mm 3 m/S 725 mmHg 33%
    16:00 +12°C° 0 mm 4 m/S 725 mmHg 34%
    17:00 +11°C° 0 mm 3 m/S 726 mmHg 37%
    18:00 +10°C° 0 mm 3 m/S 727 mmHg 40%
    19:00 +9°C° 0 mm 2 m/S 727 mmHg 46%
    20:00 +9°C° 0 mm 1 m/S 728 mmHg 48%
    21:00 +8°C° 0 mm 1 m/S 728 mmHg 50%
    22:00 +8°C° 0 mm 1 m/S 728 mmHg 52%
    23:00 +7°C° 0 mm 1 m/S 728 mmHg 52%

    Morgen, 21 Januar, Montag

    Zeit Temperatur Niederschläge Wind Luftdruck Luftfeuchtigkeit
    00:00 +7°C° 0 mm 1 m/S 728 mmHg 52%
    01:00 +6°C° 0 mm 1 m/S 728 mmHg 51%
    02:00 +6°C° 0 mm 1 m/S 728 mmHg 51%
    03:00 +6°C° 0 mm 1 m/S 727 mmHg 51%
    04:00 +5°C° 0 mm 1 m/S 727 mmHg 51%
    05:00 +5°C° 0 mm 1 m/S 727 mmHg 51%
    06:00 +5°C° 0 mm 1 m/S 727 mmHg 52%
    07:00 +5°C° 0 mm 1 m/S 727 mmHg 53%
    08:00 +6°C° 0 mm 1 m/S 728 mmHg 48%
    09:00 +7°C° 0 mm 2 m/S 728 mmHg 44%
    10:00 +8°C° 0 mm 2 m/S 728 mmHg 39%
    11:00 +9°C° 0 mm 2 m/S 728 mmHg 36%
    12:00 +10°C° 0 mm 2 m/S 727 mmHg 34%
    13:00 +12°C° 0 mm 2 m/S 726 mmHg 31%
    14:00 +12°C° 0 mm 2 m/S 726 mmHg 30%
    15:00 +12°C° 0 mm 1 m/S 726 mmHg 30%
    16:00 +12°C° 0 mm 1 m/S 726 mmHg 29%
    17:00 +11°C° 0 mm 1 m/S 726 mmHg 33%
    18:00 +8°C° 0 mm 2 m/S 726 mmHg 37%
    19:00 +7°C° 0 mm 2 m/S 727 mmHg 41%
    20:00 +8°C° 0 mm 1 m/S 727 mmHg 42%
    21:00 +7°C° 0 mm 1 m/S 727 mmHg 43%
    22:00 +7°C° 0 mm 1 m/S 727 mmHg 43%
    23:00 +6°C° 0 mm 1 m/S 726 mmHg 44%

    übermorgen, 22 Januar, Dienstag

    Zeit Temperatur Niederschläge Wind Luftdruck Luftfeuchtigkeit
    00:00 +6°C° 0 mm 1 m/S 726 mmHg 44%
    01:00 +5°C° 0 mm 0 m/S 726 mmHg 45%
    02:00 +4°C° 0 mm 0 m/S 725 mmHg 46%
    03:00 +4°C° 0 mm 0 m/S 725 mmHg 47%
    04:00 +3°C° 0 mm 0 m/S 724 mmHg 48%
    05:00 +3°C° 0 mm 0 m/S 724 mmHg 49%
    06:00 +3°C° 0 mm 0 m/S 724 mmHg 50%
    07:00 +3°C° 0 mm 0 m/S 724 mmHg 51%
    08:00 +5°C° 0 mm 1 m/S 724 mmHg 47%
    09:00 +7°C° 0 mm 1 m/S 724 mmHg 43%
    10:00 +9°C° 0 mm 1 m/S 725 mmHg 39%
    11:00 +10°C° 0 mm 1 m/S 724 mmHg 38%
    12:00 +11°C° 0 mm 1 m/S 723 mmHg 37%
    13:00 +12°C° 0 mm 1 m/S 722 mmHg 36%
    14:00 +12°C° 0 mm 1 m/S 722 mmHg 37%
    15:00 +12°C° 0 mm 1 m/S 722 mmHg 38%
    16:00 +12°C° 0 mm 1 m/S 721 mmHg 38%
    17:00 +11°C° 0 mm 1 m/S 722 mmHg 43%
    18:00 +10°C° 0 mm 1 m/S 722 mmHg 48%
    19:00 +8°C° 0 mm 1 m/S 723 mmHg 53%
    20:00 +8°C° 0 mm 1 m/S 723 mmHg 54%
    21:00 +7°C° 0 mm 1 m/S 723 mmHg 56%
    22:00 +7°C° 0 mm 1 m/S 723 mmHg 58%
    23:00 +7°C° 0 mm 1 m/S 722 mmHg 58%

    23 Januar, Mittwoch

    Zeit Temperatur Niederschläge Wind Luftdruck Luftfeuchtigkeit
    00:00 +5°C° 0 mm 0 m/S 722 mmHg 59%
    01:00 +5°C° 0 mm 0 m/S 722 mmHg 59%
    02:00 +5°C° 0 mm 0 m/S 721 mmHg 60%
    03:00 +5°C° 0 mm 0 m/S 721 mmHg 61%
    04:00 +4°C° 0 mm 0 m/S 721 mmHg 62%
    05:00 +4°C° 0 mm 0 m/S 721 mmHg 63%
    06:00 +4°C° 0 mm 0 m/S 721 mmHg 64%
    07:00 +4°C° 0 mm 0 m/S 721 mmHg 64%
    08:00 +5°C° 0 mm 0 m/S 722 mmHg 59%
    09:00 +8°C° 0 mm 1 m/S 722 mmHg 54%
    10:00 +10°C° 0 mm 1 m/S 722 mmHg 48%
    11:00 +11°C° 0 mm 1 m/S 721 mmHg 46%
    12:00 +12°C° 0 mm 1 m/S 720 mmHg 43%
    13:00 +13°C° 0 mm 1 m/S 720 mmHg 41%
    14:00 +13°C° 0 mm 1 m/S 719 mmHg 41%
    15:00 +13°C° 0 mm 1 m/S 719 mmHg 42%
    16:00 +13°C° 0 mm 1 m/S 718 mmHg 42%
    17:00 +12°C° 0 mm 1 m/S 719 mmHg 47%
    18:00 +11°C° 0 mm 1 m/S 719 mmHg 52%
    19:00 +10°C° 0 mm 1 m/S 719 mmHg 56%
    20:00 +9°C° 0 mm 1 m/S 719 mmHg 59%
    21:00 +9°C° 0 mm 1 m/S 719 mmHg 61%
    22:00 +8°C° 0 mm 1 m/S 719 mmHg 63%
    23:00 +8°C° 0 mm 1 m/S 719 mmHg 64%

    24 Januar, Donnerstag

    Zeit Temperatur Niederschläge Wind Luftdruck Luftfeuchtigkeit
    00:00 +8°C° 0 mm 1 m/S 719 mmHg 64%
    01:00 +7°C° 0 mm 1 m/S 719 mmHg 65%
    02:00 +7°C° 0 mm 1 m/S 718 mmHg 66%
    03:00 +7°C° 0 mm 1 m/S 718 mmHg 67%
    04:00 +6°C° 0 mm 1 m/S 718 mmHg 67%
    05:00 +6°C° 0 mm 1 m/S 718 mmHg 68%
    06:00 +6°C° 0 mm 1 m/S 718 mmHg 69%
    07:00 +6°C° 0 mm 1 m/S 719 mmHg 70%
    08:00 +7°C° 0 mm 2 m/S 719 mmHg 63%
    09:00 +9°C° 0 mm 2 m/S 719 mmHg 56%
    10:00 +12°C° 0 mm 2 m/S 720 mmHg 49%
    11:00 +13°C° 0 mm 2 m/S 719 mmHg 47%
    12:00 +14°C° 0 mm 2 m/S 718 mmHg 44%
    13:00 +15°C° 0 mm 2 m/S 718 mmHg 42%
    14:00 +15°C° 0 mm 2 m/S 718 mmHg 43%
    15:00 +15°C° 0 mm 2 m/S 717 mmHg 44%
    16:00 +15°C° 0 mm 2 m/S 717 mmHg 44%
    17:00 +14°C° 0 mm 2 m/S 718 mmHg 49%
    18:00 +13°C° 0 mm 2 m/S 719 mmHg 53%
    19:00 +10°C° 0 mm 2 m/S 719 mmHg 58%
    20:00 +11°C° 0 mm 1 m/S 720 mmHg 60%
    21:00 +10°C° 0 mm 1 m/S 720 mmHg 62%
    22:00 +10°C° 0 mm 1 m/S 720 mmHg 64%
    23:00 +10°C° 0 mm 1 m/S 720 mmHg 65%

    25 Januar, Freitag

    Zeit Temperatur Niederschläge Wind Luftdruck Luftfeuchtigkeit
    00:00 +9°C° 0 mm 1 m/S 721 mmHg 66%
    01:00 +9°C° 0 mm 1 m/S 721 mmHg 67%
    02:00 +9°C° 0 mm 1 m/S 721 mmHg 67%
    03:00 +9°C° 0 mm 1 m/S 721 mmHg 67%
    04:00 +9°C° 0 mm 1 m/S 721 mmHg 67%
    05:00 +8°C° 0 mm 1 m/S 721 mmHg 67%
    06:00 +8°C° 0 mm 1 m/S 721 mmHg 67%
    07:00 +8°C° 0 mm 1 m/S 722 mmHg 67%
    08:00 +10°C° 0 mm 1 m/S 722 mmHg 62%
    09:00 +12°C° 0 mm 1 m/S 723 mmHg 58%
    10:00 +13°C° 0 mm 1 m/S 723 mmHg 53%
    11:00 +14°C° 0 mm 1 m/S 723 mmHg 52%
    12:00 +15°C° 0 mm 2 m/S 722 mmHg 51%
    13:00 +16°C° 0 mm 2 m/S 722 mmHg 51%
    14:00 +16°C° 0 mm 2 m/S 721 mmHg 52%
    15:00 +16°C° 0 mm 2 m/S 721 mmHg 54%
    16:00 +16°C° 0 mm 2 m/S 721 mmHg 56%
    17:00 +15°C° 0 mm 2 m/S 722 mmHg 59%
    18:00 +14°C° 0 mm 2 m/S 722 mmHg 63%
    19:00 +13°C° 0 mm 2 m/S 723 mmHg 66%
    20:00 +13°C° 0 mm 2 m/S 723 mmHg 69%
    21:00 +12°C° 0 mm 2 m/S 723 mmHg 72%
    22:00 +10°C° 0 mm 2 m/S 724 mmHg 75%
    23:00 +10°C° 0 mm 2 m/S 723 mmHg 77%
    Mehr zeigen